Regional Weather Roundup
Issued by NWS

Home | Current Version | Previous Version | Text Only | Print | Product List | Glossary On
Versions: 1 2 3 4 5 6 7 8 9 10 11 12 13 14 15 16 17 18 19 20 21 22 23 24 25 26 27 28 29 30 31 32 33 34 35 36 37 38 39 40 41 42 43 44 45 46 47 48 49 50
000
ASUS43 KLMK 211802
RWRKY
KENTUCKY REGIONAL WEATHER ROUNDUP
NATIONAL WEATHER SERVICE LOUISVILLE KY
100 PM EST SUN DEC 21 2014

NOTE "FAIR" INDICATES FEW OR NO CLOUDS BELOW 12,000 FEET
WITH NO SIGNIFICANT WEATHER AND/OR OBSTRUCTIONS TO VISIBILITY.

KYZ001>023-026-027-061>063-070>075-211900-
WESTERN AND SOUTH CENTRAL KENTUCKY

CITY           SKY/WX    TMP DP  RH WIND       PRES   REMARKS
PADUCAH        SUNNY     45  31  58 SE8       30.17F
HENDERSON      SUNNY     39  28  65 E6        30.20F WCI  35
OWENSBORO      FAIR      42  30  62 S7        30.21F
HOPKINSVILLE   MOSUNNY   46  30  54 E7        30.17F
BOWLING GREEN  MOSUNNY   47  28  47 NE7       30.21F
GLASGOW        NOT AVBL
$$

KYZ024-025-028>034-038-045-046-053-211900-
NORTH CENTRAL KENTUCKY

CITY           SKY/WX    TMP DP  RH WIND       PRES   REMARKS
LOUISVILLE/SDF PTSUNNY   40  28  62 SE6       30.22F
LOUISVILLE/LOU SUNNY     39  28  64 E7        30.23F WCI  34
FORT KNOX      FAIR      39  29  66 E7        30.19F WCI  34
$$

KYZ035>037-039>044-047>052-055>060-089>105-211900-
NORTHEAST KENTUCKY

CITY           SKY/WX    TMP DP  RH WIND       PRES   REMARKS
LEXINGTON      SUNNY     38  28  67 E7        30.22F WCI  33
COVINGTON      PTSUNNY   36  25  64 E7        30.24F WCI  30
FRANKFORT      SUNNY     37  28  70 E8        30.22F WCI  31
$$

KYZ054-064>069-076>088-106>120-211900-
SOUTHEAST KENTUCKY

CITY           SKY/WX    TMP DP  RH WIND       PRES   REMARKS
JACKSON        SUNNY     40  27  59 VRB5      30.20F
LONDON         SUNNY     45  28  51 E5        30.18F
SOMERSET       NOT AVBL
MIDDLESBORO    NOT AVBL
MONTICELLO     CLEAR     45  28  51 SE7       30.21F
$$



USA.gov is the U.S. government's official web portal to all federal, state and local government web resources and services.